Home > Weather > Imst > Past weeks

Flag for Austria Weather for the Past 2 Weeks in Imst, Tyrol, Austria

Now
42 °F

Quite cool.


Feels Like: 42 °F
Forecast: 31 / 48 °F
Wind: 1 mph from Southeast

Location: Landeck

Current Time: May 3, 2016 at 7:10:59 AM

Latest Report: May 3, 2016 at 6:00 AM


Visibility: N/A

Pressure: 30.17 "Hg (27.36 "Hg at 797m altitude)

Humidity: 91%

Dew Point: 39 °F

Location of ImstLocation

Historic Weather in Imst — Graph

°F

Imst Temperature Yesterday

Maximum temperature yesterday: 49 °F (at 4:00 PM)
Minimum temperature yesterday: 41 °F (at 8:00 AM)
Average temperature yesterday: 45 °F

High & Low Weather Summary for the Past Weeks

 TemperatureHumidityPressure
High76 °F (Apr 21, 4:00 PM)93% (May 2, 2:00 AM)30.37 "Hg (May 2, 2:00 AM)
Low27 °F (Apr 28, 5:00 AM)16% (Apr 21, 4:00 PM)29.50 "Hg (Apr 26, 3:00 PM)
Average48 °F58%29.98 "Hg
* Reported Apr 18 3:00 AM — May 3 2:00 AM, Imst, Weather by CustomWeather, © 2016

Note: Actual official high and low records may vary slightly from our data, if they occured in-between our weather recording intervals... More about our weather records

Advertising

Imst Weather History for the Previous 24 Hours

Scroll right to see more
 ConditionsComfort  
Time TempWeatherWind HumidityBarometerVisibility
2:00 AM
Tue, May 3
44 °FQuite cool.1 mph92%30.17 "HgN/A
1:00 AM44 °FQuite cool.1 mph93%30.19 "HgN/A
12:00 AM44 °FQuite cool.1 mph93%30.19 "HgN/A
10:00 PM
Mon, May 2
45 °FCool.1 mph93%30.18 "HgN/A
9:00 PM46 °FCool.1 mph91%30.16 "HgN/A
8:00 PM47 °FCool.No wind90%30.14 "HgN/A
7:00 PM47 °FCool.No wind90%30.14 "HgN/A
6:00 PM47 °FCool.1 mph87%30.14 "HgN/A
5:00 PM48 °FFog.No wind86%30.14 "HgN/A
4:00 PM49 °FCool.1 mph82%30.13 "HgN/A
3:00 PM49 °FCool.1 mph76%30.13 "HgN/A
2:00 PM48 °FCool.1 mph85%30.14 "HgN/A
1:00 PM46 °FCool.1 mph87%30.16 "HgN/A
12:00 PM46 °FCool.No wind87%30.16 "HgN/A
10:00 AM44 °FQuite cool.No wind85%30.18 "HgN/A
9:00 AM42 °FQuite cool.No wind88%30.19 "HgN/A
8:00 AM41 °FQuite cool.No wind91%30.19 "HgN/A
Weather by CustomWeather, © 2016

See weather overviewHow to use our weather pages